Weather in Dobruchi

Russia / Pskov Oblast     58°53′07″N   27°54′54″E
temp.,
°C
wind,
m/s
gust,
m/s
humid.,
%
clouds,
%
prec.,
mm/h
press.,
hPa
HPBL,
m
22 june, tue
tue2200:00+22sse38756 0.0 1015137
03:00+20sse39790 0.0 1016163
06:00+21se287752 0.0 1015170
09:00+27se49507 0.0 1014519
12:00+31sse594065 0.0 10141682
15:00+32s6938100 0.0 10132233
18:00+30ssw595098 0.0 10131890
21:00+18n2394100 2.0 101464
23 june, wed
wed2300:00+20sse3592100 0.0 101480
03:00+20s249626 0.1 101582
06:00+21s269311 0.0 1015151
09:00+27s35655 0.0 1016565
12:00+31ssw474451 0.1 10161774
15:00+33ssw57320 0.1 10152274
18:00+32ssw47360 0.0 10152244
21:00+25sse311614 0.1 1014294
24 june, thu
thu2400:00+19ese2298100 2.5 101644
03:00+19s2395100 2.5 101669
06:00+20wsw279798 0.0 1016243
09:00+23sw35799 0.0 1017513
12:00+26sw345899 0.0 1017754
15:00+22wsw2575100 0.0 1017218
18:00+25wsw355721 0.0 1016769
21:00+22s11765 0.0 101615
25 june, fri
fri2500:00+19ese2293100 0.0 101635
03:00+18ese1197100 0.0 101520
06:00+19e129380 0.0 101594
09:00+24e237032 0.1 1015798
12:00+26sse136448 1.1 10141325
15:00+26wnw227013 2.6 1014486
18:00+27w11581 0.8 1013872
21:00+21nne25850 0.8 1013149
26 june, sat
sat2600:00+18nne12955 0.0 101315
03:00+18ene249846 0.0 101270
06:00+20ene2492100 0.0 1012119
09:00+26e34675 0.0 1012551
12:00+30e345098 0.5 10111608
15:00+25sw4770100 2.1 1010294
18:00+17nne4797100 14.8 1012144
21:00+18ne269510 14.9 1011148